This demonstration page uses our WeatherBlox Daily Observations layout. Learn more.

Left ArrowRight Arrow

34.02893, -84.19858

Hourly Observations for August 12, 2015

Temp ( °F °C ) Dew Point ( °F °C ) Humidity (%) Winds ( mph kmh ) Pressure ( in mb ) Visibility ( mi km ) Precip ( " mm )
12:53 am 00:53 Clear 76 24.4 71 21.7 85 85 NW 7 11 29.93 1014 10 16 0.00 0.00
1:53 am 01:53 Clear 75 23.9 71 21.7 88 88 WNW 7 11 29.93 1014 10 16 0.00 0.00
2:53 am 02:53 Clear 75 23.9 71 21.7 88 88 NW 8 13 29.92 1013 10 16 0.00 0.00
3:53 am 03:53 Clear 74 23.3 70 21.1 88 88 NW 7 11 29.92 1013 10 16 0.00 0.00
4:53 am 04:53 Clear 73 22.8 69 20.6 87 87 NNW 7 11 29.92 1013 10 16 0.00 0.00
5:53 am 05:53 Clear 72 22.2 68 20 87 87 N 5 7 29.93 1013 10 16 0.00 0.00
6:53 am 06:53 Clear 71 21.7 67 19.4 87 87 NNW 6 9 29.94 1014 10 16 0.00 0.00
7:53 am 07:53 Sunny 73 22.8 67 19.4 81 81 NNW 7 11 29.96 1015 10 16 0.00 0.00
8:53 am 08:53 Sunny 76 24.4 67 19.4 74 74 NW 8 13 29.98 1015 10 16 0.00 0.00
9:53 am 09:53 Sunny 80 26.7 67 19.4 64 64 NW 7 11 29.98 1015 10 16 0.00 0.00
10:53 am 10:53 Sunny 83 28.3 66 18.9 57 57 NW 8 13 29.99 1016 10 16 0.00 0.00
11:53 am 11:53 Sunny 85 29.4 63 17.2 48 48 NNW 8 13 29.98 1015 10 16 0.00 0.00
12:53 pm 12:53 Sunny 87 30.6 63 17.2 45 45 NW 7 11 29.97 1015 10 16 0.00 0.00
1:53 pm 13:53 Partly Cloudy 88 31.1 63 17.2 43 43 NW 10 17 29.95 1014 10 16 0.00 0.00
2:53 pm 14:53 Mostly Sunny 86 30 60 15.6 42 42 N 9 15 29.94 1014 10 16 0.00 0.00
3:53 pm 15:53 Sunny 89 31.7 60 15.6 38 38 VRB 3 6 29.92 1013 10 16 0.00 0.00
4:53 pm 16:53 Partly Cloudy 89 31.7 62 16.7 41 41 VRB 6 9 29.92 1013 10 16 0.00 0.00
5:53 pm 17:53 Sunny 88 31.1 61 16.1 40 40 NNE 7 11 29.91 1013 10 16 0.00 0.00
6:53 pm 18:53 Mostly Sunny 86 30 62 16.7 45 45 N 9 15 29.92 1013 10 16 0.00 0.00
7:53 pm 19:53 Mostly Cloudy 84 28.9 60 15.6 44 44 NNW 9 15 29.93 1013 10 16 0.00 0.00
8:53 pm 20:53 Mostly Clear 81 27.2 61 16.1 51 51 N 8 13 29.94 1014 10 16 0.00 0.00
9:53 pm 21:53 Clear 78 25.6 61 16.1 56 56 NNW 7 11 29.96 1015 10 16 0.00 0.00
10:53 pm 22:53 Mostly Clear 75 23.9 62 16.7 64 64 N 5 7 29.97 1015 10 16 0.00 0.00
11:53 pm 23:53 Mostly Cloudy 75 23.9 62 16.7 64 64 N 3 6 29.97 1015 10 16 0.00 0.00

Powered by AerisWeather